Theta_e
313 313 312 312 310 308 307 308 308 308 307 308 308 308 309 309 309 310 311 311 312 312 313 315 319 318 323 331 331 329 326 323 322 316 318 320 328 327 323 322 322 324 326 329 334 339 338
311 312 312 312 311 309 307 307 307 307 306 307 307 308 308 309 309 310 310 311 311 312 313 315 319 319 329 332 330 326 327 323 316 318 322 324 326 323 323 322 323 324 327 330 334 335 337
310 310 311 309 310 308 306 306 306 306 306 307 308 308 309 309 310 310 310 310 311 312 313 316 320 322 327 321 327 323 319 316 316 318 323 326 326 323 322 324 328 330 330 330 335 336 336
310 310 309 310 310 308 305 305 305 305 305 306 307 308 309 310 310 311 311 311 311 312 314 318 321 326 320 327 327 322 318 320 319 319 326 328 328 322 325 328 330 332 330 335 335 336 337
309 309 310 310 309 307 304 304 305 305 305 305 307 307 308 310 311 311 312 312 313 318 319 320 329 329 330 326 324 325 324 325 322 321 324 326 325 326 329 330 327 326 330 338 335 335 337
309 309 309 309 308 307 304 304 304 304 305 305 306 306 308 309 311 311 312 312 323 322 325 325 326 325 322 330 326 326 326 326 325 323 322 324 323 326 324 325 329 331 339 339 338 336 336
307 308 308 307 308 306 304 304 304 304 305 305 305 306 307 308 310 311 313 315 315 318 328 330 323 325 325 328 328 326 327 326 325 323 322 323 324 323 324 325 328 329 329 336 337 336 338
307 306 306 306 307 304 304 304 304 305 305 305 305 306 306 307 309 311 315 317 317 316 315 317 320 321 324 324 325 325 325 324 325 324 323 321 322 323 325 326 327 327 325 328 332 337 337
306 306 306 306 304 304 304 303 304 304 304 305 305 306 306 307 308 315 314 317 318 317 316 317 317 318 318 320 322 327 322 324 326 325 325 322 323 324 324 324 324 321 322 322 323 326 336
304 305 305 304 302 303 303 303 303 303 304 304 305 305 306 306 310 311 316 317 317 317 316 320 319 319 319 320 321 329 324 324 323 325 325 324 326 326 326 325 323 320 321 322 323 326 325
303 305 304 303 302 303 303 303 303 303 303 304 305 305 306 306 310 313 315 317 317 317 314 323 319 321 317 319 321 322 326 323 323 324 324 326 329 327 328 328 324 321 321 321 325 326 325
305 305 305 304 302 303 304 304 303 303 304 304 304 305 306 307 307 311 313 316 316 317 316 323 321 320 319 319 321 321 325 323 323 324 324 325 326 327 326 327 325 324 324 322 323 321 324
304 304 304 304 302 302 303 303 303 303 304 304 305 306 306 306 307 313 313 312 313 320 319 322 320 319 318 318 319 320 325 324 325 325 325 325 327 327 327 325 323 323 319 321 323 324 326
303 304 303 304 303 304 304 303 302 302 303 303 306 307 307 308 307 308 314 311 318 319 318 318 318 319 319 319 319 319 325 325 324 326 326 328 329 327 327 324 323 322 319 322 326 328 330
303 303 302 303 302 304 304 303 301 301 302 304 306 308 309 308 312 308 310 314 314 318 320 318 317 320 318 320 320 319 321 326 326 324 326 326 328 328 328 326 323 324 323 320 322 324 325
303 303 303 301 301 301 303 302 301 300 302 304 306 309 312 311 311 312 312 315 316 317 316 316 318 318 318 318 318 318 318 320 326 327 322 323 325 325 327 328 323 322 321 323 320 326 326
302 303 304 302 301 302 303 302 300 300 302 305 309 311 316 312 312 308 312 313 315 315 315 315 316 316 317 317 317 317 318 321 321 321 324 321 323 327 327 327 324 324 323 321 319 321 324
302 302 302 300 301 303 303 302 299 299 302 304 305 313 314 315 311 308 311 315 314 315 315 315 316 316 316 317 317 317 319 322 321 322 323 322 321 325 326 326 326 324 323 320 321 321 328
302 303 302 301 303 303 302 300 298 299 301 302 303 309 316 315 312 310 310 314 314 314 314 315 315 317 316 316 316 318 320 322 321 328 321 322 322 325 324 323 324 327 323 323 320 322 325
302 302 302 302 302 301 300 299 298 299 303 304 305 315 312 311 310 315 316 316 317 318 317 315 315 315 316 317 314 315 317 319 320 323 338 329 321 322 324 324 329 332 331 328 324 325 324
301 302 301 302 301 301 300 299 299 299 307 307 307 314 312 314 315 315 318 320 319 318 317 318 318 315 316 317 316 315 315 317 320 327 324 324 326 331 329 333 335 335 333 334 330 326 327
300 302 301 301 301 301 300 300 300 299 307 310 308 309 308 309 312 312 315 320 322 321 319 317 317 318 316 315 316 317 316 319 323 328 328 323 324 335 334 334 335 337 335 336 336 335 327
300 300 301 301 300 300 300 300 300 299 302 304 307 307 306 310 308 310 313 320 321 323 324 324 324 318 317 315 314 319 318 318 322 330 331 335 326 330 333 335 336 334 334 337 337 335 333
299 299 300 300 300 300 300 301 300 299 298 300 304 305 307 313 312 313 314 319 320 323 325 325 324 322 323 320 323 323 323 323 324 324 328 336 337 330 331 332 338 333 334 334 338 351 340
299 298 299 299 299 299 300 300 299 299 298 299 302 304 304 308 311 313 313 316 317 317 321 324 325 325 322 318 320 322 322 320 324 325 327 331 336 338 336 336 335 335 336 336 342 353 343
298 298 298 299 298 300 299 299 299 299 299 299 305 304 303 305 309 309 312 313 313 314 318 323 323 320 320 317 320 325 326 324 326 326 324 324 331 335 337 340 341 334 334 334 334 347 345
298 298 299 299 299 299 299 299 299 299 298 298 302 303 303 302 304 305 310 309 311 313 318 321 318 324 318 317 320 321 324 324 326 329 327 323 327 331 336 338 335 348 350 340 332 331 346
298 298 297 298 298 298 298 298 299 298 298 298 301 302 301 298 299 302 305 309 309 311 317 315 321 321 325 326 319 319 321 320 323 330 339 326 325 329 333 336 337 344 350 349 344 346 345
297 297 298 298 298 298 298 298 298 298 298 298 298 299 299 299 298 301 302 303 305 307 307 311 319 319 326 323 325 324 331 328 332 337 333 337 334 337 333 333 341 339 344 344 344 343 342
Wind_Speed
16 16 16 16 16 14 12 12 12 12 14 14 14 16 17 18 19 20 20 21 21 22 20 19 12 7 3 2 6 3 7 13 11 11 9 3 3 3 3 4 6 4 7 9 12 4 7
16 16 17 17 17 16 14 13 13 13 16 14 15 16 17 18 19 20 21 21 22 22 19 18 10 7 2 3 3 5 11 12 11 13 6 6 5 3 5 3 1 5 13 11 3 6 5
16 16 17 17 17 17 15 14 14 15 16 16 16 17 17 18 20 21 22 23 23 21 18 14 6 5 1 9 4 6 10 9 10 15 4 9 7 3 3 9 2 7 6 8 2 2 4
17 17 17 17 18 17 17 16 15 16 19 19 18 20 19 20 21 23 25 25 24 20 15 7 3 2 6 5 10 10 10 6 8 11 13 12 18 5 3 3 8 6 5 4 8 4 5
18 19 18 19 19 18 17 17 18 19 20 21 21 22 21 21 22 25 26 28 24 12 4 1 2 1 8 2 8 12 11 7 13 13 15 18 4 3 3 3 5 5 3 6 9 4 3
18 19 19 19 19 18 17 18 18 19 20 23 24 25 23 22 23 26 28 29 8 4 3 2 3 3 6 5 9 16 16 12 5 5 3 1 4 1 3 4 4 5 2 5 8 5 5
18 19 20 20 19 19 18 19 19 20 22 24 25 26 26 23 22 25 28 8 4 3 1 6 3 4 7 10 11 11 20 6 3 4 2 3 3 7 9 9 7 5 4 8 7 8 1
19 19 20 21 21 20 19 20 21 23 24 24 25 26 28 24 21 22 12 3 2 4 8 10 17 14 25 16 5 6 19 6 5 5 2 4 8 13 6 8 8 8 7 6 8 7 4
19 20 20 20 21 20 20 21 22 22 23 24 25 26 28 25 19 7 12 11 13 12 2 8 8 7 7 10 8 9 12 6 4 5 5 7 9 3 6 10 8 6 4 6 6 4 1
20 21 22 23 22 22 21 21 21 22 24 25 25 26 26 29 6 14 7 20 16 14 3 7 5 8 6 8 5 12 21 7 4 11 8 7 14 15 14 7 5 5 10 5 6 4 2
21 22 23 25 25 25 25 23 24 25 27 27 26 26 23 19 14 6 12 16 15 3 3 2 4 5 9 10 4 7 21 4 9 7 6 9 4 3 5 10 6 10 6 7 4 3 2
20 21 22 25 25 26 27 27 26 28 29 29 28 25 25 9 13 10 17 11 4 4 6 5 4 6 7 5 5 4 7 3 6 4 7 9 8 4 7 12 9 4 2 6 5 3 4
18 20 20 24 25 25 27 30 31 28 29 30 30 24 25 18 5 2 16 4 4 3 5 3 2 4 6 7 8 5 7 7 6 3 5 6 11 9 8 7 4 5 6 4 5 5 6
19 19 19 22 25 25 28 31 34 32 31 33 30 24 16 17 11 6 4 5 4 6 7 5 7 5 4 5 6 5 8 7 7 3 3 3 8 10 4 10 8 5 8 6 5 3 6
19 18 20 20 24 26 29 33 36 36 34 34 27 13 9 12 9 9 5 3 7 6 4 7 8 0 4 6 5 8 10 14 13 11 9 6 8 3 4 5 9 5 3 7 6 2 3
18 17 19 20 22 25 29 33 38 38 36 28 20 9 8 6 13 10 4 5 5 2 6 5 1 3 6 8 1 5 7 9 12 18 8 8 6 15 19 5 5 10 5 3 3 2 4
17 17 18 21 22 23 26 32 36 39 38 23 5 4 5 20 17 5 3 6 5 4 8 6 4 5 2 1 2 1 5 7 18 15 16 7 5 19 3 4 6 3 1 4 5 6 5
17 18 19 20 22 22 25 31 35 38 39 19 8 2 12 26 4 2 2 3 6 5 7 6 4 6 6 1 2 4 4 1 11 19 11 13 7 8 12 5 6 8 10 6 5 6 3
15 18 20 20 21 23 28 32 35 35 33 12 3 3 7 13 3 2 5 5 6 11 8 5 5 3 5 1 3 3 5 7 8 4 7 8 4 1 10 7 6 3 6 4 5 4 5
16 18 18 19 21 25 29 33 35 33 25 2 1 4 4 4 1 2 3 5 5 7 9 11 9 5 5 3 4 6 6 8 15 9 6 8 4 9 9 7 2 5 7 2 7 4 5
17 17 17 19 22 25 28 31 35 33 18 3 2 2 1 3 4 6 1 4 6 7 5 2 7 6 7 3 5 6 6 8 7 4 6 4 2 3 5 3 1 2 5 7 2 5 6
16 17 17 19 22 24 26 29 33 35 11 6 3 3 5 4 5 5 2 3 3 8 5 9 3 14 8 7 9 8 6 2 6 7 6 4 3 1 4 4 5 3 10 3 14 18 4
16 14 16 18 20 21 22 24 28 32 18 8 7 6 3 5 6 3 2 8 9 11 6 7 10 8 7 9 8 9 6 5 5 4 4 3 2 3 3 4 4 3 4 3 3 2 6
15 14 15 17 18 18 19 21 22 25 22 5 3 4 2 4 2 3 10 8 12 8 4 8 11 2 4 8 3 1 2 3 3 5 2 3 2 2 3 4 3 7 4 3 3 4 5
13 15 16 16 16 16 17 18 19 21 21 13 6 3 2 2 3 6 10 7 8 8 4 4 8 5 14 5 3 4 5 6 1 2 2 3 3 2 4 3 4 6 3 2 2 4 6
14 13 14 14 15 16 16 16 17 18 20 15 7 5 2 1 4 6 4 3 4 5 6 2 8 10 5 3 4 3 4 5 3 1 2 5 5 3 2 3 4 7 6 8 4 0 6
13 12 14 14 15 16 15 15 15 17 18 16 2 7 1 1 4 4 2 3 3 3 3 4 8 9 6 3 3 0 2 3 2 0 1 3 2 5 2 3 5 7 14 5 4 7 3
13 13 14 14 14 14 14 14 14 15 15 15 3 4 5 2 7 4 4 3 3 1 0 5 3 5 5 6 2 3 1 3 1 2 2 3 3 3 2 2 7 18 4 5 4 6 3
13 12 12 13 13 13 13 13 13 12 12 13 4 5 8 4 6 11 26 27 18 14 1 4 4 2 0 3 3 3 3 3 1 1 4 1 4 4 3 3 2 7 2 0 3 6 5
Wind_Direction
26 23 18 14 13 8 4 358 357 358 356 353 354 348 346 346 344 341 340 339 339 339 337 339 343 356 355 339 249 211 158 172 182 173 185 182 255 182 254 292 342 243 279 306 276 272 285
27 24 20 15 12 8 5 1 357 357 354 354 349 347 344 342 340 338 334 333 331 331 330 333 340 349 1 284 202 188 175 173 172 170 194 190 231 207 278 280 118 294 306 294 10 31 26
27 26 21 15 12 10 8 6 360 357 358 351 347 345 341 340 337 334 331 329 325 324 320 324 338 354 274 241 227 171 172 180 184 184 192 231 265 137 2 324 323 277 307 323 260 177 213
27 25 22 17 14 13 12 9 4 358 0 356 346 344 339 335 335 330 328 326 322 314 309 310 347 14 257 300 220 165 155 179 197 207 228 271 277 219 164 291 338 338 34 1 262 191 158
29 25 23 19 16 15 16 14 9 3 359 357 350 343 335 331 332 328 328 327 320 310 289 337 42 41 272 115 189 199 182 189 204 230 248 276 358 206 336 69 357 4 250 259 308 134 174
28 25 22 20 15 15 16 13 8 3 358 357 351 344 335 328 329 327 329 330 354 78 94 41 277 325 265 232 210 196 203 213 184 190 343 359 48 27 22 81 217 200 176 291 267 296 71
28 23 20 16 12 14 16 11 5 0 360 357 348 344 339 327 326 326 331 336 356 2 134 210 197 266 286 275 200 181 204 191 221 90 183 295 76 235 214 207 244 269 216 233 265 260 355
27 23 18 15 10 12 11 7 3 2 358 348 346 343 340 329 320 323 334 21 235 264 301 247 248 249 258 266 304 186 192 158 151 194 210 346 248 240 229 242 238 261 267 245 279 255 148
18 17 15 11 9 9 5 3 0 356 347 346 346 342 340 331 317 323 326 334 332 357 292 287 220 207 213 173 222 206 156 174 158 196 208 194 242 329 216 267 270 266 240 277 270 316 234
8 12 12 11 8 7 3 359 354 348 346 345 342 340 341 337 321 334 297 340 358 350 21 272 224 245 182 148 251 187 181 148 222 206 224 240 255 253 272 243 225 248 254 250 286 32 232
9 14 13 11 7 4 359 354 350 346 343 341 338 336 334 336 313 313 328 333 339 54 347 247 198 178 158 153 153 223 174 123 190 202 137 243 275 263 261 254 219 237 257 257 247 207 68
13 11 8 7 5 4 0 354 346 342 339 335 332 331 326 327 306 268 334 331 360 44 254 316 160 170 108 211 234 93 150 93 182 216 255 247 273 253 249 273 242 249 278 47 35 65 11
8 6 6 8 6 2 360 356 351 341 335 333 325 322 311 296 249 171 341 33 54 162 320 290 262 163 173 186 218 136 152 181 180 172 271 318 283 280 257 273 305 90 60 353 352 5 227
6 5 5 7 6 4 360 357 352 344 336 335 322 318 297 267 262 275 359 58 185 233 262 315 354 317 190 171 232 173 148 188 249 149 110 198 314 235 246 208 191 196 153 156 201 212 260
7 6 1 2 2 3 359 358 355 347 339 338 326 320 278 262 211 202 82 126 208 219 315 356 334 343 262 234 175 191 177 201 208 182 176 179 259 260 284 298 162 239 174 198 144 78 52
5 7 5 0 356 357 358 357 355 350 341 342 327 314 260 198 165 142 83 225 237 275 2 359 312 47 15 339 177 163 200 204 214 204 170 222 274 273 278 299 261 159 166 64 19 188 285
360 1 3 3 2 358 358 358 357 355 346 346 335 344 320 162 146 58 175 235 289 315 10 3 327 284 251 325 301 208 221 265 212 209 189 170 154 268 71 195 221 75 226 66 119 138 169
2 359 353 356 4 5 360 358 358 360 354 5 344 13 149 153 80 182 215 240 329 324 329 289 259 240 231 18 302 319 240 301 307 218 159 202 171 233 244 243 197 190 211 158 130 254 182
0 358 357 3 6 2 358 356 356 360 5 328 338 273 200 188 132 255 279 261 247 277 271 274 323 331 320 142 321 234 297 299 330 296 192 179 210 274 321 347 349 185 191 173 106 80 199
358 357 2 1 359 357 357 357 355 357 354 308 21 13 337 14 26 124 324 279 273 279 286 247 259 283 271 296 183 274 286 303 330 325 331 93 129 170 198 208 180 333 316 244 134 121 208
351 349 354 354 357 359 360 2 358 360 2 91 63 331 28 332 337 332 283 279 283 296 251 9 318 216 236 261 331 272 284 310 311 332 357 69 150 158 161 204 152 281 300 2 326 241 156
354 356 355 354 358 360 1 4 3 3 23 56 55 28 344 291 302 349 313 260 268 302 241 293 297 304 238 194 188 272 295 257 267 334 15 11 274 84 350 26 37 13 325 349 332 308 204
345 346 348 351 356 359 2 5 6 9 25 48 358 347 112 284 324 343 336 350 343 5 308 327 312 280 298 263 204 205 210 224 233 317 329 49 114 70 282 352 26 18 267 227 243 291 196
345 340 339 342 348 356 360 5 8 9 18 10 346 328 51 285 312 338 316 334 336 350 258 310 319 211 288 296 273 36 52 288 72 1 96 24 77 102 199 45 240 239 265 270 131 18 320
346 346 347 349 352 356 359 4 6 3 5 3 358 3 63 276 312 308 335 330 326 335 326 293 342 294 303 349 30 39 346 3 274 248 8 97 96 74 141 177 279 329 316 309 104 343 57
338 344 345 351 354 352 356 0 2 0 357 6 53 2 80 108 231 291 290 345 343 323 324 311 323 319 328 73 42 144 189 228 285 207 60 85 99 128 124 160 208 231 303 287 138 340 110
340 341 342 348 345 346 352 354 355 356 355 356 262 16 349 237 269 22 8 270 309 337 283 319 332 341 12 35 47 124 261 203 230 179 285 345 355 183 197 206 283 335 320 318 126 237 125
326 329 332 338 338 342 345 349 350 353 354 357 313 10 17 283 281 258 298 259 326 71 42 292 17 357 357 32 55 263 186 264 92 36 351 212 171 211 118 133 273 351 5 79 233 353 12
321 327 333 334 335 334 336 339 342 345 349 351 311 344 346 215 256 288 275 260 243 238 99 334 161 184 297 5 360 322 350 17 27 195 349 299 193 179 143 179 244 304 37 317 66 78 33